{"data":{"norad_id":59237,"intl_designator":"2024-049G","name":"STARLINK-31505","alt_names":[],"object_type":"PAYLOAD","status":"ACTIVE","operator":null,"country":"US","launch_date":"2024-03-16","launch_site_code":"AFETR","launch_vehicle":null,"mission":null,"orbit_class":"UNKNOWN","rcs_meters":null,"size_class":null,"mass_kg":null,"dimensions":null,"purposes":["comms"],"wikipedia_slug":null,"has_3d_model":false,"image_url":null,"decayed_at":null,"tle_current":{"epoch":"2026-05-25T04:18:53.235648Z","epoch_age_seconds":52735,"freshness":"FRESH","line1":"1 59237U 24049G   26145.17978282 -.00000235  00000+0  10035-5 0  9991","line2":"2 59237  43.0083  71.6257 0001686 282.1081  77.9581 15.27568906124101","mean_motion":15.27568906,"eccentricity":0.0001686,"inclination_deg":43.0083,"raan_deg":71.6257,"arg_perigee_deg":282.1081,"mean_anomaly_deg":77.9581,"bstar":1.0035e-6,"rev_number":12410,"period_min":94.267433327816,"perigee_km":481.92551409112,"apogee_km":484.23911724437,"semimajor_km":6861.2193156677,"source":"CELESTRAK","updated_at":"2026-05-25T13:38:18.870178Z"}}}